World > North America > United States > Pennsylvania > Clarington  

Clarington, PA Hourly Weather Updates

Feedback E-mail the Weather

Quick Clicks

Clarington, PA Weather Maps

°F °C°F °C
Clarington Weather Map
UTC Time: 6/15/2024, 08:46
Your Time:

Clarington, PA Regional Weather

Expires:202406150900;;046655
ASUS41 KCTP 150810
RWRCTP

REGIONAL WEATHER ROUNDUP
NATIONAL WEATHER SERVICE STATE COLLEGE PA
400 AM EDT SAT JUN 15 2024

Note: "fair" indicates few or no clouds below 12,000 feet with no 
significant weather and/or obstructions to visibility.

* = STATION THAT DOES NOT REPORT PRECIPITATION /E.G. RAIN...SNOW...ETC/
    THUNDER OR FOG.


PAZ002>004-007>009-013>016-020>023-029>032-150900-
WESTERN PENNSYLVANIA
  
CITY           SKY/WX    TMP DP  RH WIND       PRES   REMARKS
ERIE           CLEAR     63  51  65 N7        30.09R                  
MEADVILLE      CLEAR     53  51  93 NE6       30.10R                  
FRANKLIN       CLEAR     54  51  90 VRB5      30.10R                  
NEW CASTLE     CLEAR     54  51  90 CALM      30.10R                  
BEAVER COUNTY  CLEAR     57  49  73 CALM      30.10R                  
BUTLER         CLEAR     52  50  93 CALM      30.09R                  
PITTSBURGH INT CLEAR     57  48  72 NW9       30.07R                  
PITTSBURGH     CLEAR     59  49  69 NW8       30.06R                  
INDIANA*       FOG       52  52 100 CALM      30.09R VSB 0            
LATROBE        CLEAR     54  54 100 CALM      30.06R                  
CONNELLSVILLE  FOG       55  55  99 CALM      30.07R VSB 1            
WASHINGTON CO* CLEAR     56  49  77 N6        30.10R                  
$$


SKY/WX - Weather  TMP - Temperature  DP - Dew Point  RH - Humidity
WIND - Wind Direction/Speed PRES - Barometric Pressure VSB - Visibility
WCI - Wind Chill Index E13G22 Wind - East Wind 13 mph/Gusts of 22 mph

Trending Headlines

Trending Entertainment Headlines

Clarington Radar Loop

Use the map search tool if you want to place a location marker on the radar map...

Clarington Quick Facts

National Two Day Weather Forecast


E-mail the Clarington Weather Forecast

Voice your opinion or tell us about page issues...